[[{"header":{"parameterUnit":"m.s-1","parameterCategory":1,"la1":30.2991,"la2":30.254,"lo1":-89.0895,"lo2":-89.0444,"dy":0.0017,"dx":0.0017,"nx":28,"ny":28,"refTime":"2024-05-25T09:00:00:Z","depth":0,"parameterNumber":2,"parameterNumberName":"U-component_of_WINDS"},"data":[0,0,0,0,0,0,0,0,0,0,0,0,0,0,0,0,0,0,0,0,0,0,0,0,0,0,0,0,0,0,0,0,0,0,0,0,0,0,0,0,0,0,0,0,0,0,0,0,0,0,0,0,0,0,0,0,0,0,-1.3687,-1.3688,0,-1.3705,-1.3705,-1.3705,-1.3726,-1.3727,-1.3727,-1.3727,-1.3744,-1.3744,-1.3744,0,0,0,0,0,0,0,0,0,0,0,0,0,-1.3672,-1.3673,-1.3687,-1.3688,-1.3688,-1.3705,-1.3705,-1.3705,-1.3726,-1.3727,-1.3727,-1.3727,-1.3744,-1.3744,-1.3744,0,0,0,0,0,0,0,0,0,0,0,0,0,-1.3683,-1.3673,-1.3687,-1.37,-1.3702,-1.3705,-1.3705,-1.3705,-1.3726,-1.3727,-1.3727,-1.3727,-1.3744,-1.3744,-1.3744,-1.3735,0,0,-1.3745,-1.3745,0,0,0,0,0,0,0,0,-1.3683,-1.3684,-1.3698,-1.3699,-1.3701,-1.3714,-1.3706,-1.3715,-1.3726,-1.3717,-1.3727,-1.3728,-1.3733,-1.3734,-1.3736,-1.3736,-1.3737,-1.3745,-1.3745,-1.3745,-1.3745,0,0,0,0,0,0,0,-1.3682,-1.3683,-1.3694,-1.3698,-1.37,-1.3705,-1.3707,-1.3708,-1.3722,-1.3718,-1.3719,-1.3721,-1.3734,-1.3736,-1.3737,-1.3737,-1.3745,-1.3745,-1.3745,-1.3745,-1.3732,-1.3731,0,0,0,0,0,0,-1.3679,-1.3682,-1.3694,-1.3695,-1.3693,-1.3705,-1.3708,-1.3709,-1.3722,-1.3724,-1.3721,-1.3722,-1.3736,-1.3737,-1.3738,-1.3729,-1.3745,-1.3745,-1.3745,-1.3732,-1.3732,-1.3731,0,0,0,0,0,0,-1.3679,-1.368,-1.3693,-1.3689,-1.3691,-1.3705,-1.3707,-1.3709,-1.3711,-1.3724,-1.3727,-1.372,-1.3736,-1.3737,-1.3736,-1.373,-1.3745,-1.3745,-1.3733,-1.3732,-1.3732,-1.3711,0,0,0,0,0,0,-1.3678,-1.368,-1.3676,-1.3689,-1.3691,-1.3691,-1.3706,-1.3709,-1.3712,-1.3714,-1.3725,-1.3727,-1.3737,-1.3736,-1.3736,-1.373,-1.3745,-1.3734,-1.3733,-1.3732,-1.3712,-1.371,-1.3708,0,0,0,0,0,-1.3678,-1.3669,-1.3676,-1.3677,-1.3687,-1.3691,-1.3692,-1.3704,-1.3711,-1.3708,-1.3717,-1.3726,-1.3731,-1.3735,-1.3736,-1.373,-1.3734,-1.3733,-1.3732,-1.3714,-1.371,-1.3708,0,0,0,0,0,0,-1.3655,-1.3671,-1.3679,-1.3674,-1.3681,-1.3694,-1.369,-1.37,-1.3704,-1.3706,-1.372,-1.3722,-1.3719,-1.3725,-1.373,-1.3723,-1.3734,-1.3733,-1.372,-1.3717,-1.3714,-1.3713,-1.3746,0,0,0,0,0,-1.365,-1.3651,-1.3665,-1.366,-1.3663,-1.3676,-1.3678,-1.3687,-1.3694,-1.3697,-1.3705,-1.3712,-1.3715,-1.3716,-1.372,-1.3714,-1.3717,-1.371,-1.3708,-1.3706,-1.3705,-1.3703,-1.3701,-1.3728,-1.3728,-1.3728,0,0,-1.3638,-1.3647,-1.3647,-1.3656,-1.3662,-1.3663,-1.3678,-1.3679,-1.368,-1.3697,-1.3696,-1.3703,-1.3711,-1.3708,-1.3707,-1.3712,-1.3698,-1.3705,-1.3703,-1.3703,-1.3702,-1.3699,-1.3697,-1.3727,-1.3727,-1.3727,0,0,-1.3618,-1.3625,-1.3622,-1.3628,-1.3638,-1.3647,-1.3646,-1.3658,-1.3664,-1.3664,-1.3677,-1.3679,-1.3683,-1.3689,-1.3692,-1.3676,-1.3686,-1.3677,-1.3664,-1.3663,-1.366,-1.3659,-1.3653,-1.3651,-1.3676,-1.3676,-1.3676,0,-1.3602,-1.3605,-1.3619,-1.3619,-1.3622,-1.3639,-1.3636,-1.3641,-1.3651,-1.3654,-1.366,-1.3667,-1.3674,-1.3673,-1.3669,-1.3671,-1.3671,-1.3675,-1.366,-1.3658,-1.3656,-1.3651,-1.3649,-1.3675,-1.3675,-1.3675,-1.3675,0,-1.3585,-1.3587,-1.3583,-1.3593,-1.3597,-1.3595,-1.3609,-1.3611,-1.362,-1.3629,-1.3629,-1.3638,-1.3644,-1.3645,-1.3653,-1.3645,-1.3648,-1.3657,-1.3668,-1.3652,-1.3648,-1.3646,-1.3673,-1.3674,-1.3674,-1.3674,0,0,-1.3549,-1.3569,-1.3567,-1.3572,-1.3585,-1.3587,-1.3587,-1.3593,-1.3595,-1.3602,-1.3602,-1.3606,-1.3615,-1.3619,-1.3629,-1.3627,-1.3615,-1.3636,-1.3637,-1.3632,-1.3607,-1.36,-1.3598,-1.3622,-1.3621,-1.3621,-1.3606,0,-1.3531,-1.3531,-1.3545,-1.3542,-1.3544,-1.3561,-1.3561,-1.3569,-1.3578,-1.3581,-1.359,-1.3593,-1.3604,-1.3607,-1.3607,-1.3616,-1.361,-1.3618,-1.3622,-1.3622,-1.3618,-1.3595,-1.3587,-1.3573,-1.3605,-1.3604,-1.3604,0,-1.3509,-1.3516,-1.3513,-1.3527,-1.3529,-1.3528,-1.3536,-1.3539,-1.3549,-1.3556,-1.3561,-1.3572,-1.3574,-1.3585,-1.3587,-1.3592,-1.3595,-1.36,-1.36,-1.36,-1.3611,-1.3594,-1.3569,-1.3566,-1.3602,-1.3602,-1.3602,0,-1.3483,-1.3491,-1.3491,-1.3495,-1.3512,-1.3511,-1.3518,-1.3529,-1.3532,-1.354,-1.3542,-1.3549,-1.3553,-1.3558,-1.3571,-1.3578,-1.3572,-1.3584,-1.3577,-1.3577,-1.3574,-1.3574,-1.3548,-1.3577,-1.3577,-1.3577,-1.3577,0,-1.3461,-1.3458,-1.348,-1.3479,-1.3478,-1.3494,-1.3492,-1.35,-1.351,-1.3512,-1.3527,-1.3529,-1.3546,-1.355,-1.3561,-1.3561,-1.3563,-1.3568,-1.3571,-1.3566,-1.3565,-1.3567,-1.3569,-1.3577,-1.3577,-1.3577,-1.3577,0,-1.343,-1.3445,-1.3446,-1.3462,-1.3466,-1.3464,-1.3478,-1.3479,-1.349,-1.3492,-1.3493,-1.351,-1.3515,-1.3529,-1.3538,-1.3545,-1.3542,-1.3548,-1.3539,-1.3541,-1.3533,-1.3534,-1.3507,-1.3505,-1.3536,-1.3535,-1.3535,0,-1.3415,-1.3414,-1.343,-1.3433,-1.344,-1.3444,-1.3448,-1.3465,-1.3468,-1.3481,-1.348,-1.3487,-1.3493,-1.3501,-1.3513,-1.352,-1.3526,-1.3516,-1.3527,-1.3523,-1.3525,-1.3525,-1.3525,-1.3513,-1.3513,-1.3513,-1.3512,0,-1.3386,-1.3393,-1.3399,-1.3407,-1.3412,-1.342,-1.3428,-1.3429,-1.3448,-1.3451,-1.3458,-1.3462,-1.3472,-1.3479,-1.3488,-1.3496,-1.3507,-1.3509,-1.3508,-1.3503,-1.3498,-1.3501,-1.3532,-1.3509,-1.351,-1.351,-1.351,-1.351,-1.3362,-1.3362,-1.3375,-1.3381,-1.3389,-1.3397,-1.3399,-1.341,-1.3415,-1.3425,-1.3435,-1.344,-1.3451,-1.3465,-1.3472,-1.3477,-1.3483,-1.3481,-1.348,-1.348,-1.3478,-1.3498,-1.3479,-1.3479,-1.3479,-1.3479,-1.3479,0,-1.3334,-1.3343,-1.3349,-1.336,-1.3365,-1.3377,-1.3387,-1.339,-1.3395,-1.3405,-1.3411,-1.3419,-1.3426,-1.344,-1.3448,-1.3449,-1.3455,-1.3451,-1.3451,-1.3452,-1.3472,-1.3472,-1.3446,-1.3446,-1.3446,-1.3446,-1.3446,-1.3446,-1.332,-1.3321,-1.333,-1.3336,-1.3345,-1.3351,-1.3356,-1.3363,-1.3371,-1.3379,-1.3386,-1.3395,-1.3407,-1.3417,-1.3424,-1.3428,-1.343,-1.3424,-1.343,-1.3448,-1.3451,-1.3454,-1.3454,-1.3425,-1.3425,-1.341,-1.341,-1.341]},{"header":{"parameterUnit":"m.s-1","parameterCategory":1,"la1":30.2991,"la2":30.254,"lo1":-89.0895,"lo2":-89.0444,"dy":0.0017,"dx":0.0017,"nx":28,"ny":28,"refTime":"2024-05-25T09:00:00:Z","depth":0,"parameterNumber":3,"parameterNumberName":"V-component_of_WINDS"},"data":[0,0,0,0,0,0,0,0,0,0,0,0,0,0,0,0,0,0,0,0,0,0,0,0,0,0,0,0,0,0,0,0,0,0,0,0,0,0,0,0,0,0,0,0,0,0,0,0,0,0,0,0,0,0,0,0,0,0,6.672,6.6721,0,6.674,6.674,6.674,6.6659,6.6657,6.6655,6.6652,6.6669,6.6671,6.6674,0,0,0,0,0,0,0,0,0,0,0,0,0,6.6611,6.6613,6.672,6.6721,6.6721,6.674,6.674,6.674,6.666,6.6657,6.6654,6.6651,6.6668,6.6671,6.6674,0,0,0,0,0,0,0,0,0,0,0,0,0,6.6647,6.6614,6.672,6.6683,6.668,6.674,6.674,6.674,6.666,6.6657,6.6653,6.665,6.6667,6.6671,6.6675,6.677,0,0,6.6687,6.6688,0,0,0,0,0,0,0,0,6.6645,6.6651,6.6688,6.6686,6.6682,6.6694,6.6707,6.675,6.6661,6.6668,6.6652,6.6648,6.668,6.6682,6.6694,6.6771,6.6772,6.6687,6.669,6.6691,6.6692,0,0,0,0,0,0,0,6.6643,6.665,6.6728,6.6689,6.6685,6.6664,6.6666,6.6715,6.6693,6.6667,6.6661,6.6665,6.6677,6.669,6.6693,6.6772,6.6687,6.6691,6.6693,6.6695,6.6929,6.6932,0,0,0,0,0,0,6.6645,6.6648,6.6727,6.6729,6.6655,6.6669,6.6671,6.6693,6.6692,6.6689,6.6668,6.6661,6.6685,6.6689,6.6694,6.6805,6.6691,6.6695,6.6697,6.6925,6.693,6.6934,0,0,0,0,0,0,6.6643,6.6653,6.6727,6.6687,6.6695,6.6675,6.6701,6.6696,6.6708,6.6693,6.6688,6.6685,6.6682,6.6688,6.6752,6.6805,6.6697,6.67,6.692,6.6926,6.6932,6.703,0,0,0,0,0,0,6.6641,6.6653,6.669,6.6688,6.6697,6.6786,6.6705,6.6699,6.6716,6.6707,6.6708,6.6705,6.668,6.6747,6.6756,6.6808,6.6703,6.6916,6.6923,6.693,6.7022,6.7038,6.7053,0,0,0,0,0,6.6637,6.6716,6.6692,6.6702,6.6743,6.6789,6.6794,6.6765,6.672,6.6757,6.6747,6.6705,6.6798,6.6754,6.6764,6.6818,6.6912,6.6921,6.6929,6.7015,6.7035,6.7052,0,0,0,0,0,0,6.6722,6.6715,6.6688,6.6769,6.6781,6.6775,6.682,6.6787,6.681,6.68,6.6762,6.6763,6.6834,6.6832,6.6783,6.6911,6.6847,6.6858,6.6909,6.6928,6.6943,6.6941,6.6707,0,0,0,0,0,6.6751,6.679,6.6781,6.6853,6.6861,6.684,6.6859,6.6836,6.6845,6.6849,6.6844,6.6854,6.6885,6.6907,6.6935,6.7022,6.702,6.7064,6.7079,6.7092,6.7102,6.7148,6.7167,6.6962,6.6962,6.6962,0,0,6.681,6.6811,6.6837,6.6871,6.6877,6.6917,6.6844,6.689,6.6919,6.6855,6.6916,6.6913,6.6921,6.6997,6.703,6.6998,6.7158,6.7103,6.7113,6.7116,6.7158,6.7178,6.7195,6.6968,6.6967,6.6966,0,0,6.6938,6.6943,6.7004,6.7011,6.7022,6.7008,6.7023,6.7023,6.7018,6.7079,6.7032,6.7066,6.7121,6.7129,6.714,6.7273,6.7235,6.7283,6.7363,6.7408,6.7424,6.7438,6.7485,6.7502,6.7293,6.7293,6.7294,0,6.7009,6.7069,6.7039,6.7088,6.7104,6.705,6.7111,6.712,6.7138,6.715,6.7114,6.7183,6.7184,6.7262,6.7294,6.7306,6.7321,6.7282,6.7424,6.7438,6.7451,6.7495,6.7513,6.7299,6.7299,6.7298,6.7297,0,6.7156,6.7199,6.7247,6.7268,6.7289,6.7344,6.7321,6.7346,6.7322,6.7311,6.7373,6.7374,6.7401,6.7418,6.7394,6.7492,6.7472,6.7431,6.7366,6.7477,6.7518,6.7534,6.7307,6.7305,6.7304,6.7302,0,0,6.7337,6.7342,6.736,6.7369,6.7377,6.7409,6.7462,6.749,6.7512,6.7527,6.7569,6.7618,6.7581,6.7594,6.757,6.761,6.7715,6.7564,6.7563,6.7591,6.7823,6.7853,6.7873,6.769,6.7693,6.7695,6.7822,0,6.7462,6.7553,6.7528,6.7618,6.7657,6.7607,6.7653,6.7662,6.7654,6.7685,6.7675,6.771,6.7658,6.7666,6.7703,6.7694,6.776,6.7685,6.7728,6.773,6.7727,6.7894,6.7926,6.8045,6.7837,6.784,6.7842,0,6.762,6.7643,6.7738,6.7741,6.7756,6.7798,6.7822,6.7852,6.7862,6.7853,6.7869,6.7837,6.7888,6.7824,6.7893,6.7843,6.7859,6.7857,6.7861,6.7863,6.7792,6.79,6.8083,6.81,6.7867,6.7865,6.7863,0,6.7742,6.7797,6.7861,6.787,6.7875,6.7905,6.7908,6.7915,6.7933,6.7954,6.7966,6.7992,6.8006,6.8027,6.8003,6.7959,6.8076,6.801,6.8069,6.807,6.8095,6.8093,6.8282,6.8107,6.8107,6.8107,6.8106,0,6.7884,6.7944,6.7916,6.7955,6.802,6.7991,6.8056,6.8053,6.806,6.8097,6.8055,6.809,6.8057,6.8089,6.8071,6.8131,6.8138,6.8131,6.8126,6.8135,6.8136,6.8144,6.8135,6.8111,6.811,6.8109,6.8109,0,6.8031,6.8014,6.8081,6.808,6.8082,6.813,6.8129,6.8165,6.8154,6.8202,6.8211,6.8194,6.823,6.8209,6.8245,6.8233,6.8311,6.8294,6.8308,6.8303,6.8364,6.8358,6.8563,6.8588,6.8399,6.8401,6.8402,0,6.8122,6.8167,6.8172,6.8195,6.8201,6.8238,6.8258,6.823,6.8252,6.8267,6.8301,6.8334,6.8358,6.8418,6.8408,6.8436,6.8419,6.8489,6.8423,6.8431,6.8419,6.8417,6.8421,6.8502,6.8504,6.8506,6.8508,0,6.8285,6.8275,6.8306,6.8334,6.8359,6.8379,6.8396,6.8416,6.8389,6.8415,6.8453,6.8472,6.851,6.8543,6.8567,6.8568,6.8534,6.8529,6.8544,6.8553,6.8559,6.8556,6.8344,6.8524,6.8522,6.8521,6.852,6.852,6.8407,6.8445,6.8455,6.849,6.85,6.8517,6.8551,6.8545,6.8576,6.8606,6.8587,6.8631,6.864,6.8668,6.8675,6.8708,6.8679,6.8701,6.8707,6.8712,6.8721,6.8555,6.8712,6.8712,6.8711,6.8711,6.871,0,6.8568,6.8572,6.8605,6.863,6.8658,6.8625,6.8642,6.8667,6.8706,6.8718,6.8744,6.8787,6.8818,6.8812,6.8841,6.8868,6.8853,6.8877,6.8874,6.8875,6.8745,6.8728,6.8889,6.8889,6.8889,6.8889,6.8889,6.8889,6.8655,6.8717,6.8709,6.8776,6.8779,6.8823,6.8835,6.885,6.886,6.891,6.8937,6.8933,6.8937,6.8966,6.8993,6.8991,6.9003,6.9032,6.9024,6.8902,6.8884,6.8867,6.8852,6.9035,6.9036,6.9151,6.9152,6.9153]}]]